Time,TemperatureF,DewpointF,PressureIn,WindDirection,WindDirectionDegrees,WindSpeedMPH,WindSpeedGustMPH,Humidity,HourlyPrecipIn,Conditions,Clouds,dailyrainin,SoftwareType,DateUTC
2013-04-04 00:02:00,36.0,30.0,30.20,South,191,11.0,16.0,78,0.00,,,0.00,,2013-04-04 05:02:00,
2013-04-04 00:13:00,36.0,30.0,30.20,South,191,11.0,16.0,78,0.00,,,0.00,,2013-04-04 05:13:00,
2013-04-04 00:23:00,36.0,30.0,30.20,South,176,9.0,17.0,78,0.00,,,0.00,,2013-04-04 05:23:00,
2013-04-04 00:32:00,36.0,30.0,30.20,South,176,9.0,17.0,78,0.00,,,0.00,,2013-04-04 05:32:00,
2013-04-04 00:42:00,36.0,30.0,30.20,South,176,9.0,17.0,78,0.00,,,0.00,,2013-04-04 05:42:00,
2013-04-04 00:53:00,35.0,29.0,30.19,SSW,198,7.0,13.0,78,0.00,,,0.00,,2013-04-04 05:53:00,
2013-04-04 01:02:00,35.0,29.0,30.18,South,187,8.0,14.0,79,0.00,,,0.00,,2013-04-04 06:02:00,
2013-04-04 01:12:00,35.0,29.0,30.18,South,187,8.0,14.0,79,0.00,,,0.00,,2013-04-04 06:12:00,
2013-04-04 01:22:00,35.0,29.0,30.18,South,176,7.0,13.0,79,0.00,,,0.00,,2013-04-04 06:22:00,
2013-04-04 01:32:00,35.0,29.0,30.18,SE,145,6.0,12.0,80,0.00,,,0.00,,2013-04-04 06:32:00,
2013-04-04 01:42:00,35.0,29.0,30.18,SE,145,6.0,12.0,80,0.00,,,0.00,,2013-04-04 06:42:00,
2013-04-04 01:53:00,35.0,29.0,30.18,SSW,208,6.0,11.0,80,0.00,,,0.00,,2013-04-04 06:53:00,
2013-04-04 02:02:00,35.0,29.0,30.18,South,184,4.0,10.0,79,0.00,,,0.00,,2013-04-04 07:02:00,
2013-04-04 02:12:00,35.0,29.0,30.18,South,184,4.0,10.0,79,0.00,,,0.00,,2013-04-04 07:12:00,
2013-04-04 02:22:00,35.0,29.0,30.18,South,186,3.0,6.0,80,0.00,,,0.00,,2013-04-04 07:22:00,
2013-04-04 02:32:00,35.0,29.0,30.18,South,186,3.0,6.0,80,0.00,,,0.00,,2013-04-04 07:32:00,
2013-04-04 02:43:00,35.0,29.0,30.18,South,186,3.0,6.0,80,0.00,,,0.00,,2013-04-04 07:43:00,
2013-04-04 02:52:00,34.0,29.0,30.18,WSW,245,6.0,9.0,81,0.00,,,0.00,,2013-04-04 07:52:00,
2013-04-04 03:02:00,35.0,29.0,30.17,SW,224,6.0,10.0,80,0.00,,,0.00,,2013-04-04 08:02:00,
2013-04-04 03:12:00,35.0,29.0,30.17,SW,224,6.0,10.0,80,0.00,,,0.00,,2013-04-04 08:12:00,
2013-04-04 03:22:00,35.0,29.0,30.17,SW,229,9.0,13.0,80,0.00,,,0.00,,2013-04-04 08:22:00,
2013-04-04 03:32:00,35.0,29.0,30.17,SW,225,10.0,13.0,79,0.00,,,0.00,,2013-04-04 08:32:00,
2013-04-04 03:43:00,35.0,29.0,30.17,SW,225,10.0,13.0,79,0.00,,,0.00,,2013-04-04 08:43:00,
2013-04-04 03:52:00,34.0,28.0,30.17,SW,236,10.0,12.0,80,0.00,,,0.00,,2013-04-04 08:52:00,
2013-04-04 04:02:00,35.0,29.0,30.17,SW,231,8.0,12.0,80,0.00,,,0.00,,2013-04-04 09:02:00,
2013-04-04 04:12:00,35.0,29.0,30.17,SW,231,8.0,12.0,80,0.00,,,0.00,,2013-04-04 09:12:00,
2013-04-04 04:22:00,35.0,29.0,30.17,WSW,240,8.0,12.0,79,0.00,,,0.00,,2013-04-04 09:22:00,
2013-04-04 04:33:00,34.0,28.0,30.16,WSW,248,7.0,11.0,80,0.00,,,0.00,,2013-04-04 09:33:00,
2013-04-04 04:43:00,34.0,28.0,30.16,WSW,248,7.0,11.0,80,0.00,,,0.00,,2013-04-04 09:43:00,
2013-04-04 04:54:00,34.0,29.0,30.15,WSW,240,7.0,10.0,81,0.00,,,0.00,,2013-04-04 09:54:00,
2013-04-04 05:04:00,34.0,29.0,30.14,WSW,242,7.0,12.0,81,0.00,,,0.00,,2013-04-04 10:04:00,
2013-04-04 05:12:00,34.0,29.0,30.14,WSW,242,7.0,12.0,81,0.00,,,0.00,,2013-04-04 10:12:00,
2013-04-04 05:23:00,34.0,29.0,30.14,SW,232,8.0,11.0,81,0.00,,,0.00,,2013-04-04 10:23:00,
2013-04-04 05:33:00,34.0,29.0,30.14,SW,236,9.0,12.0,81,0.00,,,0.00,,2013-04-04 10:33:00,
2013-04-04 05:42:00,34.0,29.0,30.14,SW,236,9.0,12.0,81,0.00,,,0.00,,2013-04-04 10:42:00,
2013-04-04 05:54:00,34.0,28.0,30.13,WSW,238,10.0,14.0,79,0.00,,,0.00,,2013-04-04 10:54:00,
2013-04-04 06:02:00,34.0,28.0,30.13,WSW,238,11.0,14.0,79,0.00,,,0.00,,2013-04-04 11:02:00,
2013-04-04 06:12:00,34.0,28.0,30.13,WSW,238,11.0,14.0,79,0.00,,,0.00,,2013-04-04 11:12:00,
2013-04-04 06:22:00,34.0,28.0,30.13,SW,217,12.0,16.0,78,0.00,,,0.00,,2013-04-04 11:22:00,
2013-04-04 06:32:00,34.0,28.0,30.13,SW,217,12.0,16.0,78,0.00,,,0.00,,2013-04-04 11:32:00,
2013-04-04 06:42:00,34.0,28.0,30.13,SW,217,12.0,16.0,78,0.00,,,0.00,,2013-04-04 11:42:00,
2013-04-04 06:54:00,35.0,29.0,30.12,SSW,207,12.0,17.0,78,0.00,,,0.00,,2013-04-04 11:54:00,
2013-04-04 07:02:00,34.0,28.0,30.12,WSW,240,8.0,13.0,80,0.00,,,0.00,,2013-04-04 12:02:00,
2013-04-04 07:12:00,34.0,28.0,30.12,WSW,240,8.0,13.0,80,0.00,,,0.00,,2013-04-04 12:12:00,
2013-04-04 07:22:00,34.0,29.0,30.12,WSW,246,11.0,14.0,81,0.00,,,0.00,,2013-04-04 12:22:00,
2013-04-04 07:32:00,34.0,29.0,30.12,WSW,246,11.0,14.0,81,0.00,,,0.00,,2013-04-04 12:32:00,
2013-04-04 07:43:00,34.0,29.0,30.12,WSW,246,11.0,14.0,81,0.00,,,0.00,,2013-04-04 12:43:00,
2013-04-04 07:52:00,35.0,29.0,30.13,SSW,210,8.0,12.0,80,0.00,,,0.00,,2013-04-04 12:52:00,
2013-04-04 08:02:00,35.0,30.0,30.13,WSW,243,6.0,8.0,81,0.00,,,0.00,,2013-04-04 13:02:00,
2013-04-04 08:12:00,35.0,30.0,30.13,WSW,243,6.0,8.0,81,0.00,,,0.00,,2013-04-04 13:12:00,
2013-04-04 08:22:00,36.0,31.0,30.13,SSW,207,7.0,10.0,81,0.00,,,0.00,,2013-04-04 13:22:00,
2013-04-04 08:32:00,37.0,31.0,30.13,SW,222,5.0,10.0,78,0.00,,,0.00,,2013-04-04 13:32:00,
2013-04-04 08:42:00,37.0,31.0,30.13,SW,222,5.0,10.0,78,0.00,,,0.00,,2013-04-04 13:42:00,
2013-04-04 08:53:00,37.0,31.0,30.14,West,275,2.0,6.0,79,0.00,,,0.00,,2013-04-04 13:53:00,
2013-04-04 09:03:00,39.0,33.0,30.14,WSW,245,3.0,8.0,78,0.00,,,0.00,,2013-04-04 14:03:00,
2013-04-04 09:12:00,39.0,33.0,30.14,WSW,245,3.0,8.0,78,0.00,,,0.00,,2013-04-04 14:12:00,
2013-04-04 09:22:00,40.0,33.0,30.14,WSW,248,1.0,6.0,77,0.00,,,0.00,,2013-04-04 14:22:00,
2013-04-04 09:32:00,40.0,34.0,30.14,West,274,0.0,2.0,78,0.00,,,0.00,,2013-04-04 14:32:00,
2013-04-04 09:42:00,40.0,34.0,30.14,West,274,0.0,2.0,78,0.00,,,0.00,,2013-04-04 14:42:00,
2013-04-04 09:53:00,43.0,36.0,30.14,WNW,287,2.0,5.0,76,0.00,,,0.00,,2013-04-04 14:53:00,
2013-04-04 10:02:00,42.0,34.0,30.14,West,278,3.0,10.0,73,0.00,,,0.00,,2013-04-04 15:02:00,
2013-04-04 10:12:00,42.0,34.0,30.14,West,278,3.0,10.0,73,0.00,,,0.00,,2013-04-04 15:12:00,
2013-04-04 10:23:00,40.0,34.0,30.14,WNW,288,1.0,11.0,78,0.00,,,0.00,,2013-04-04 15:23:00,
2013-04-04 10:33:00,39.0,34.0,30.13,WNW,300,1.0,4.0,81,0.00,,,0.00,,2013-04-04 15:33:00,
2013-04-04 10:43:00,39.0,34.0,30.13,WNW,300,1.0,4.0,81,0.00,,,0.00,,2013-04-04 15:43:00,
2013-04-04 10:53:00,40.0,35.0,30.13,WNW,301,2.0,5.0,81,0.00,,,0.00,,2013-04-04 15:53:00,
2013-04-04 11:03:00,40.0,35.0,30.13,WNW,301,2.0,5.0,81,0.00,,,0.00,,2013-04-04 16:03:00,
2013-04-04 11:12:00,40.0,35.0,30.13,WNW,301,2.0,5.0,81,0.00,,,0.00,,2013-04-04 16:12:00,
2013-04-04 11:23:00,41.0,35.0,30.14,NNW,331,3.0,8.0,78,0.00,,,0.00,,2013-04-04 16:23:00,
2013-04-04 11:32:00,43.0,36.0,30.15,NW,314,4.0,10.0,77,0.00,,,0.00,,2013-04-04 16:32:00,
2013-04-04 11:43:00,43.0,36.0,30.15,NW,314,4.0,10.0,77,0.00,,,0.00,,2013-04-04 16:43:00,
2013-04-04 11:53:00,43.0,36.0,30.15,NNW,329,6.0,10.0,76,0.00,,,0.00,,2013-04-04 16:53:00,
2013-04-04 12:03:00,44.0,37.0,30.15,NNW,338,4.0,10.0,76,0.00,,,0.00,,2013-04-04 17:03:00,
2013-04-04 12:13:00,44.0,37.0,30.15,NNW,338,4.0,10.0,76,0.00,,,0.00,,2013-04-04 17:13:00,
2013-04-04 12:22:00,46.0,36.0,30.14,NNW,328,4.0,9.0,68,0.00,,,0.00,,2013-04-04 17:22:00,
2013-04-04 12:33:00,46.0,36.0,30.14,NNW,328,4.0,9.0,68,0.00,,,0.00,,2013-04-04 17:33:00,
2013-04-04 12:42:00,46.0,36.0,30.14,NNW,328,4.0,9.0,68,0.00,,,0.00,,2013-04-04 17:42:00,
2013-04-04 12:52:00,47.0,36.0,30.14,North,352,5.0,9.0,65,0.00,,,0.00,,2013-04-04 17:52:00,
2013-04-04 13:02:00,47.0,35.0,30.14,North,357,5.0,11.0,64,0.00,,,0.00,,2013-04-04 18:02:00,
2013-04-04 13:12:00,47.0,35.0,30.14,North,357,5.0,11.0,64,0.00,,,0.00,,2013-04-04 18:12:00,
2013-04-04 13:23:00,48.0,35.0,30.14,NW,325,5.0,12.0,60,0.00,,,0.00,,2013-04-04 18:23:00,
2013-04-04 13:32:00,50.0,36.0,30.13,North,1,4.0,9.0,59,0.00,,,0.00,,2013-04-04 18:32:00,
2013-04-04 13:43:00,50.0,36.0,30.13,North,1,4.0,9.0,59,0.00,,,0.00,,2013-04-04 18:43:00,
2013-04-04 13:52:00,50.0,35.0,30.13,NW,316,5.0,12.0,57,0.00,,,0.00,,2013-04-04 18:52:00,
2013-04-04 14:02:00,51.0,35.0,30.14,NNW,335,6.0,12.0,55,0.00,,,0.00,,2013-04-04 19:02:00,
2013-04-04 14:12:00,51.0,35.0,30.14,NNW,335,6.0,12.0,55,0.00,,,0.00,,2013-04-04 19:12:00,
2013-04-04 14:22:00,51.0,35.0,30.13,NW,316,6.0,13.0,55,0.00,,,0.00,,2013-04-04 19:22:00,
2013-04-04 14:32:00,52.0,33.0,30.13,WNW,301,6.0,11.0,48,0.00,,,0.00,,2013-04-04 19:32:00,
2013-04-04 14:42:00,52.0,33.0,30.13,WNW,301,6.0,11.0,48,0.00,,,0.00,,2013-04-04 19:42:00,
2013-04-04 14:52:00,52.0,34.0,30.13,NNE,26,6.0,12.0,51,0.00,,,0.00,,2013-04-04 19:52:00,
2013-04-04 15:03:00,52.0,36.0,30.12,North,354,7.0,18.0,54,0.00,,,0.00,,2013-04-04 20:03:00,
2013-04-04 15:12:00,52.0,36.0,30.12,North,354,7.0,18.0,54,0.00,,,0.00,,2013-04-04 20:12:00,
2013-04-04 15:22:00,52.0,37.0,30.12,North,353,10.0,14.0,56,0.00,,,0.00,,2013-04-04 20:22:00,
2013-04-04 15:32:00,52.0,36.0,30.11,North,354,7.0,13.0,55,0.00,,,0.00,,2013-04-04 20:32:00,
2013-04-04 15:42:00,52.0,36.0,30.11,North,354,7.0,13.0,55,0.00,,,0.00,,2013-04-04 20:42:00,
2013-04-04 15:52:00,52.0,35.0,30.11,North,8,7.0,15.0,53,0.00,,,0.00,,2013-04-04 20:52:00,
2013-04-04 16:02:00,52.0,35.0,30.11,NNW,341,9.0,16.0,53,0.00,,,0.00,,2013-04-04 21:02:00,
2013-04-04 16:12:00,52.0,35.0,30.11,NNW,341,9.0,16.0,53,0.00,,,0.00,,2013-04-04 21:12:00,
2013-04-04 16:22:00,52.0,37.0,30.11,NW,310,9.0,17.0,57,0.00,,,0.00,,2013-04-04 21:22:00,
2013-04-04 16:32:00,52.0,36.0,30.11,NNE,29,10.0,14.0,54,0.00,,,0.00,,2013-04-04 21:32:00,
2013-04-04 16:43:00,52.0,36.0,30.11,NNE,29,10.0,14.0,54,0.00,,,0.00,,2013-04-04 21:43:00,
2013-04-04 16:52:00,52.0,35.0,30.11,NW,308,11.0,16.0,53,0.00,,,0.00,,2013-04-04 21:52:00,
2013-04-04 17:03:00,51.0,35.0,30.11,NW,319,10.0,17.0,55,0.00,,,0.00,,2013-04-04 22:03:00,
2013-04-04 17:12:00,51.0,35.0,30.11,NW,319,10.0,17.0,55,0.00,,,0.00,,2013-04-04 22:12:00,
2013-04-04 17:23:00,51.0,36.0,30.11,NW,326,7.0,14.0,56,0.00,,,0.00,,2013-04-04 22:23:00,
2013-04-04 17:33:00,51.0,35.0,30.11,NNE,15,5.0,12.0,55,0.00,,,0.00,,2013-04-04 22:33:00,
2013-04-04 17:42:00,51.0,35.0,30.11,NNE,15,5.0,12.0,55,0.00,,,0.00,,2013-04-04 22:42:00,
2013-04-04 17:53:00,51.0,36.0,30.11,North,5,4.0,15.0,57,0.00,,,0.00,,2013-04-04 22:53:00,
2013-04-04 18:03:00,51.0,37.0,30.12,NNE,15,6.0,12.0,58,0.00,,,0.00,,2013-04-04 23:03:00,
2013-04-04 18:12:00,51.0,37.0,30.12,NNE,15,6.0,12.0,58,0.00,,,0.00,,2013-04-04 23:12:00,
2013-04-04 18:22:00,50.0,36.0,30.12,North,356,8.0,14.0,59,0.00,,,0.00,,2013-04-04 23:22:00,
2013-04-04 18:32:00,50.0,36.0,30.12,North,356,8.0,14.0,59,0.00,,,0.00,,2013-04-04 23:32:00,
2013-04-04 18:42:00,50.0,36.0,30.12,North,356,8.0,14.0,59,0.00,,,0.00,,2013-04-04 23:42:00,
2013-04-04 18:52:00,49.0,37.0,30.12,NNW,347,6.0,13.0,62,0.00,,,0.00,,2013-04-04 23:52:00,
2013-04-04 19:02:00,48.0,36.0,30.12,NNW,333,7.0,13.0,62,0.00,,,0.00,,2013-04-05 00:02:00,
2013-04-04 19:12:00,48.0,36.0,30.12,NNW,333,7.0,13.0,62,0.00,,,0.00,,2013-04-05 00:12:00,
2013-04-04 19:22:00,48.0,35.0,30.13,NNW,335,4.0,8.0,61,0.00,,,0.00,,2013-04-05 00:22:00,
2013-04-04 19:32:00,48.0,35.0,30.13,NNW,335,4.0,8.0,61,0.00,,,0.00,,2013-04-05 00:32:00,
2013-04-04 19:42:00,48.0,35.0,30.13,NNW,335,4.0,8.0,61,0.00,,,0.00,,2013-04-05 00:42:00,
2013-04-04 19:52:00,46.0,35.0,30.14,NW,309,5.0,12.0,64,0.00,,,0.00,,2013-04-05 00:52:00,
2013-04-04 20:02:00,44.0,34.0,30.14,NNW,330,2.0,5.0,68,0.00,,,0.00,,2013-04-05 01:02:00,
2013-04-04 20:12:00,44.0,34.0,30.14,NNW,330,2.0,5.0,68,0.00,,,0.00,,2013-04-05 01:12:00,
2013-04-04 20:22:00,44.0,34.0,30.14,NW,318,3.0,7.0,69,0.00,,,0.00,,2013-04-05 01:22:00,
2013-04-04 20:32:00,42.0,34.0,30.14,North,352,2.0,5.0,72,0.00,,,0.00,,2013-04-05 01:32:00,
2013-04-04 20:42:00,42.0,34.0,30.14,North,352,2.0,5.0,72,0.00,,,0.00,,2013-04-05 01:42:00,
2013-04-04 20:52:00,42.0,34.0,30.14,NNW,331,2.0,5.0,74,0.00,,,0.00,,2013-04-05 01:52:00,
2013-04-04 21:03:00,41.0,34.0,30.15,West,281,2.0,7.0,75,0.00,,,0.00,,2013-04-05 02:03:00,
2013-04-04 21:12:00,41.0,34.0,30.15,West,281,2.0,7.0,75,0.00,,,0.00,,2013-04-05 02:12:00,
2013-04-04 21:22:00,40.0,33.0,30.16,North,351,3.0,7.0,76,0.00,,,0.00,,2013-04-05 02:22:00,
2013-04-04 21:32:00,40.0,33.0,30.16,NW,314,4.0,10.0,77,0.00,,,0.00,,2013-04-05 02:32:00,
2013-04-04 21:42:00,40.0,33.0,30.16,NW,314,4.0,10.0,77,0.00,,,0.00,,2013-04-05 02:42:00,
2013-04-04 21:52:00,39.0,33.0,30.17,North,353,2.0,8.0,79,0.00,,,0.00,,2013-04-05 02:52:00,
2013-04-04 22:02:00,38.0,32.0,30.18,NW,313,2.0,8.0,79,0.00,,,0.00,,2013-04-05 03:02:00,
2013-04-04 22:12:00,38.0,32.0,30.18,NW,313,2.0,8.0,79,0.00,,,0.00,,2013-04-05 03:12:00,
2013-04-04 22:22:00,37.0,31.0,30.18,North,353,4.0,9.0,79,0.00,,,0.00,,2013-04-05 03:22:00,
2013-04-04 22:32:00,36.0,30.0,30.18,NNE,12,4.0,10.0,80,0.00,,,0.00,,2013-04-05 03:32:00,
2013-04-04 22:43:00,36.0,30.0,30.18,NNE,12,4.0,10.0,80,0.00,,,0.00,,2013-04-05 03:43:00,
2013-04-04 22:53:00,36.0,31.0,30.18,North,4,3.0,7.0,81,0.00,,,0.00,,2013-04-05 03:53:00,
2013-04-04 23:02:00,35.0,30.0,30.18,North,353,2.0,7.0,82,0.00,,,0.00,,2013-04-05 04:02:00,
2013-04-04 23:12:00,35.0,30.0,30.18,North,353,2.0,7.0,82,0.00,,,0.00,,2013-04-05 04:12:00,
2013-04-04 23:22:00,34.0,29.0,30.19,NNE,12,2.0,7.0,83,0.00,,,0.00,,2013-04-05 04:22:00,
2013-04-04 23:32:00,34.0,30.0,30.19,NW,326,4.0,8.0,84,0.00,,,0.00,,2013-04-05 04:32:00,
2013-04-04 23:42:00,34.0,30.0,30.19,NW,326,4.0,8.0,84,0.00,,,0.00,,2013-04-05 04:42:00,
2013-04-04 23:52:00,33.0,29.0,30.20,NNE,27,2.0,7.0,84,0.00,,,0.00,,2013-04-05 04:52:00,